CZ-6A DEB, 54330

Orbit data source: Space-Track

CZ-6A DEB, 54330 is space debris in SSO originally from a launch on Fri, 11 Nov 2022 UTC launched from the Taiyaun Space Center, China (TSC). Debris objects in space refer to the collection of defunct objects orbiting the Earth. Examples of debris include non-operational satellites, rocket bodies, and fragments generated from explosions, collisions, or faulty payload assembly.

Loading next visibility...
Identifier
54330, 2022-151BZ
Orbit
SSO
Country
Flag of CNCN / PRC
Related business
Manufacturer
SAST
Mission
Spacecraft
Bus & Motor
Unknown
Mass
Unknown
Launch date (UTC)
2022-11-11 (4 years ago)
Launch vehicle
Unknown
Launch site
Taiyaun Space Center, China (TSC)
Object type
Payload
Rocket body
Debris
Shape & HBR
Unknown shape, 0.1 m
Radar Cross Section
Small (<0.1 m²)

Expand to show TLE details & history
Last TLE update: 23 hours ago

TLE from 23 hours ago
0 CZ-6A DEB
1 54330U 22151BZ  26236.02135932  .00001995  00000-0  78845-3 0  9999
2 54330  98.7575 260.3629 0054419 127.4489 233.1661 14.29314349195911
Epoch: 2026-08-24T00:30Z
TLE epoch observation values (Epoch: 2026-08-24T00:30:45.445Z)
Latitude
-0.00001°
Longitude
-79.6355°
Altitude
820.488 km
Speed
7.431 km/s
True Right ascension
17h 21m 27s
True Declination
0° 00' 00"
Sunlit
Object was in daylight at epoch
Visualization orbit readout
Latitude
Unknown
Longitude
Unknown
Altitude
Unknown
Speed
Unknown
Apparent Right ascension
Unknown
Apparent Declination
Unknown
Sunlit
N/A
Visualization observer readout
Local Sidereal Time
14:55:12
Azimuth
Unknown
Elevation
Unknown
Doppler factor
Unknown
Orbital elements
Apogee altitude
830.187 km
Perigee altitude
752.157 km
Semi-major axis
7,169.309 km
Eccentricity
0.00544
Inclination
98.7575°
RAAN
260.3629°
Arg. of periapsis
127.4489°
True anomaly
232.66902°
Mean anomaly
233.1661°
Eccentric anomaly
232.91736°
Mean motion
3.57542 °/min
Orbital period
100.69 mins
BSTAR
0.00078845
Loading maneuver chart data...
Computing Atmospheric mass density...

Documentation

Showing up to 5 results
|